Regional Weather Roundup
Issued by NWS Wakefield, VA

Home | Current Version | Previous Version | Graphics & Text | Print | Product List | Glossary On
Versions: 1 2 3 4 5 6 7 8 9 10 11 12 13 14 15 16 17 18 19 20 21 22 23 24 25 26 27 28 29 30 31 32 33 34 35 36 37 38 39 40 41 42 43 44 45 46 47 48 49 50
000
ASUS41 KAKQ 260714
RWRAKQ

REGIONAL WEATHER ROUNDUP
NATIONAL WEATHER SERVICE WAKEFIELD VA
300 AM EDT SUN APR 26 2015

Note: "fair" indicates few or no clouds below 12,000 feet with no
significant weather and/or obstructions to visibility. * = Denotes
station may not report precipitation (e.g., rain,snow,etc.),
thunder or fog.

VAZ042-051-052>054-056-260800-
NORTHERN VIRGINIA

CITY           SKY/WX    TMP DP  RH WIND       PRES   REMARKS
WASH NATIONAL  CLOUDY    46  39  76 CALM      29.69F
DULLES         CLOUDY    41  39  93 NW6       29.70R
FORT BELVOIR   CLOUDY    43  41  93 SW3       29.69S
QUANTICO       CLOUDY    45  38  76 E5        29.70F
FREDERICKSBRG* CLOUDY    44  44 100 N3        29.68F
STAFFORD*      CLOUDY    41  32  70 CALM      29.72F
WARRENTON      CLOUDY    42  41  98 CALM      29.68F
CULPEPER*      CLOUDY    43  41  93 CALM      29.70S
MANASSAS*      CLOUDY    41  41 100 CALM      29.69F
LEESBURG*      CLOUDY    41  41 100 NW3       29.71R
WINCHESTER     CLOUDY    41  36  81 CALM      29.69R
FRONT ROYAL*   CLOUDY    39  37  93 CALM      29.67F
LURAY*         CLOUDY    41  41 100 NE3       29.67F
$$

VAZ048-049-060>072-079>083-260800-
CENTRAL AND SOUTH CENTRAL VIRGINIA

CITY           SKY/WX    TMP DP  RH WIND       PRES   REMARKS
RICHMOND       DRIZZLE   45  43  93 N5        29.66F FOG
CHESTERFIELD*  CLOUDY    45  34  65 N6        29.67F
PETERSBURG*    CLOUDY    46  45  95 N6        29.66F FOG
HANOVER        CLOUDY    43  42  97 N3        29.68F FOG
TAPPAHANNOCK*  CLOUDY    45  41  88 N5        29.67F
QUINTON*       CLOUDY    44  44  99 NW5       29.65F
CHARLOTTSVILLE CLOUDY    40  39  97 NE7       29.67F FOG
GORDONSVILLE*  CLOUDY    40  39  95 CALM      29.68S
ORANGE*        CLOUDY    41  41 100 NW3       29.70S
LOUISA*        CLOUDY    43  41  93 CALM      29.67R FOG
BUMPASS*       CLOUDY    41  40  97 CALM      29.68S
FARMVILLE*     RAIN      44  44 100 NE5       29.66F
CREWE*         CLOUDY    44  42  95 CALM      29.66S
FORT PICKETT*  CLOUDY    44  44  98 N5        29.65S
CHASE CITY*    CLOUDY    46  46 100 CALM      29.65F
CLARKSVILLE*   CLOUDY    45  45 100 N6        29.64S
SOUTH HILL*    CLOUDY    44  43  98 N6        29.70S
LAWRENCEVILLE* CLOUDY    44  44  99 N6        29.64S
EMPORIA*       LGT RAIN  45  45 100 N5        29.66S
$$

VAZ088>098-260800-
SOUTHEAST VIRGINIA

CITY           SKY/WX    TMP DP  RH WIND       PRES   REMARKS
NORFOLK        LGT RAIN  49  45  86 NE17      29.62F
VIRGINIA BEACH CLOUDY    50  45  83 NE15      29.62F
NORFOLK NAVAL  LGT RAIN  51  45  79 NE13      29.64F
WEST POINT*    CLOUDY    48  46  92 NE5       29.66F
SALUDA*        CLOUDY    44  43  94 N6        29.66F
NEWPORT NEWS   CLOUDY    50  45  83 NE6       29.64F
LANGLEY AFB    CLOUDY    47  45  91 NE15      29.63F
FORT EUSTIS    CLOUDY    48  48 100 NE3       29.62F
WILLIAMSBURG*  CLOUDY    48  48 100 CALM      29.65F
HR EXEC AP*    CLOUDY    50  45  81 NE5       29.64F
FRANKLIN*      CLOUDY    47  46  97 NE7       29.63F FOG
WAKEFIELD      CLOUDY    47  45  93 N5        29.64F
$$

VAZ020-022-025-037-045-260800-
WEST CENTRAL AND SOUTHWEST VIRGINIA

CITY           SKY/WX    TMP DP  RH WIND       PRES   REMARKS
STAUNTON*      DRIZZLE   41  39  92 E3        29.68S
WAYNESBORO*    CLOUDY    39  39  99 CALM      29.66R
HOT SPRINGS VA MIX PCPN  34  34 100 E7        29.57F VSB<1/4
LYNCHBURG      LGT RAIN  40  40 100 N8        29.65F
DANVILLE       CLOUDY    44  41  89 NE8       29.65F
SOUTH BOSTON*  CLOUDY    43  42  95 NE5       29.66F
MARTINSVILLE   RAIN      42  42 100 NE5       29.66F
ROANOKE        LGT RAIN  42  41  96 SE5       29.66F
BLACKSBURG     HVY RAIN  38  38  99 E3        29.65S
DUBLIN*        LGT RAIN  41  41 100 NE6       29.61F
MARION*        CLOUDY    44  42  95 E5        29.61F
HILLSVILLE*    LGT SNOW  44  44 100 S5        29.58F VSB 1
RICHLANDS*     HAZE      50  32  49 CALM      29.57S VSB 1/2
WISE*          FOG       54  54 100 S3        29.58F VSB 1/2
ABINGDON*      CLOUDY    57  57  99 CALM      29.56S FOG
$$

MDZ021>025-VAZ099-100-260800-
SOUTHERN MARYLAND AND THE DELMARVA PENINSULA

CITY           SKY/WX    TMP DP  RH WIND       PRES   REMARKS
PATUXENT RIVER CLOUDY    44  40  85 NE6       29.67F
BAY BRIDGE APT   N/A    N/A N/A N/A CALM      29.68F
LEONARDTOWN    CLOUDY    43  39  87 CALM      29.69F
DOVER          CLOUDY    45  44  95 W6        29.63F
GEORGETOWN     CLOUDY    42  40  92 CALM      29.67F
EASTON         MOCLDY    44  44 100 N5        29.71S
CAMBRIDGE      CLOUDY    43  41  93 CALM      29.66F
SALISBURY      CLOUDY    42  40  92 S3        29.66F
OCEAN CITY     CLOUDY    43  41  93 CALM      29.66F
WALLOPS ISLAND LGT RAIN  43  41  93 N9        29.66F
ACCOMACK*      CLOUDY    43  32  65 N7        29.66F
$$

NCZ012>017-030>032-260800-
NORTH CENTRAL AND EASTERN NORTH CAROLINA

CITY           SKY/WX    TMP DP  RH WIND       PRES   REMARKS
ROANOKE RAPIDS DRIZZLE   45  45 100 NE5       29.63F
RALEIGH        FOG       47  45  93 NE12      29.62F VSB 1/2
ELIZABETH CITY CLOUDY    49  48  97 NE15      29.60F
AHOSKIE*       DRIZZLE   46  45  97 N5        29.63F
EDENTON*       CLOUDY    49  47  96 NE8       29.61F FOG
CURRITUCK*     CLOUDY    49  47  93 N17       29.61F FOG
KILL DEVIL HLS CLOUDY    49  49 100 N9        29.57S
MANTEO         CLOUDY    50  50  98 NE17G23   29.58F
CAPE HATTERAS  LGT RAIN  55  55 100 N8        29.54F
TARBORO*       CLOUDY    47  46  95 N7        29.63F
GOLDSBORO      CLOUDY    53  53 100 N8        29.57F FOG
WASHINGTON     CLOUDY    50  49  97 N5        29.60F FOG
GREENVILLE     CLOUDY    50  50 100 NE10      29.63F FOG
NEW BERN       CLOUDY    56  55  97 N10       29.58F FOG
WILMINGTON     CLOUDY    67  66  97 CALM      29.56F
$$

VAZ048-260800-
ELSEWHERE

CITY           SKY/WX    TMP DP  RH WIND       PRES   REMARKS
HARRISBURG PA  MOCLDY    43  31  62 NW12      29.69S
BALTIMORE      CLOUDY    42  40  92 W3        29.68F
ANNAPOLIS      CLOUDY    44  40  85 N3        29.68S
ANDREWS AFB    CLOUDY    42  40  94 N2        29.67F
PHILADELPHIA   PTCLDY    48  34  58 W3        29.67F
HENDERSON NC   CLOUDY    44  43  95 NE6       29.64S FOG
GREENSBORO     CLOUDY    44  43  96 NE10      29.61S FOG
ROCKY MOUNT    CLOUDY    47  46  97 N9        29.62F FOG
$$

VAZ100-260800-
MARINE

STATION/POSITION TIME  TEMP    WIND        PRES    WAVE   SWELL
                       AIR SEA DIR/SP/G            HT/PER HT/PER
                 (UTC) (F)     (DEG/KT/KT) (MB)    (FT/S) (FT/S)
BRANDYWINE LGT   0612   45 51  260/ 10/ 11 1005.3R
CAPE MAY NJ      0618   46 54  250/  9/ 11 1004.7R
LEWES DE         0600   43 51  260/  3/  4 1005.1R
15NM E FENWICK I 0650   44 47              1004.3F   1/11
OCEAN-CITY-INLET 0600   44 50   70/  1/  2 1005.1F
WACHAPREAGUE VA  0600   44 54   10/  6/ 11 1004.6F
THOMAS POINT MD  0700   46 52  200/  2/  3 1006.0R
GOOSES REEF MD   0700   45 52  150/  6/  8   N/A
COVE POINT MD    0606   44      70/  8/ 11 1006.0F
SOLOMONS ISLAND  0612      54                N/A
BISHOPS HEAD MD  0618   44 53   40/ 10/ 12 1004.3F
PINEY POINT MD   0600           70/  6/  8   N/A
CAMBRIDGE MD     0618   43 58  190/  3/  4 1004.8F
LEWISETTA VA     0600   46 58              1004.9F
RAPPAHANNOCK LGT 0600           40/ 16/ 17 1005.1F
YORK RVR RNG VA  0618   48      40/ 19/ 21 1003.1F
YORKTOWN VA      0612   48 59   30/  7/ 11 1003.9F
JAMESTOWN VA     0700   47 63   40/  4/  6 1002.8F
DOMINION TERM VA 0606   48      50/  7/ 11 1004.0F
KIPTOPEKE VA     0600      61   40/  8/ 11   N/A
CHES BAY BRIDGE  0600   48 53   30/ 18/ 21 1003.0F
CAPE HENRY VA    0600   48      30/ 19/ 22 1002.5F
CHESAPEAKE LGHT  0600   46      30/ 23/ 24 1004.0F
WILLOUBY STN VA  0600   49      40/ 16/ 17 1004.5F
S CRANEY ISL VA  0612           30/ 11/ 16 1003.4F
CAPE HENRY BUOY  0628      51                N/A     4/ 4
1ST LANDING BUOY 0700                      1002.9F   3/ 3
OFFSHORE WE BUOY 0611      50                N/A     4/ 4   2/12
64NM E OF VA BCH 0650   54 57   20/ 19/ 23 1001.1F   4/ 4   2/11
DUCK PIER NC     0618   49 54   20/ 22/ 24 1000.9F
44056 DUCK FRF   0611      54                N/A     4/ 5
OREGON INLET NC  0618   52 59  360/ 12/ 19 1001.1F
HATTERAS NC      0600   60 65  350/ 10/ 12 1000.5F
DIAMOND SHLS NC  0650   62 74  350/ 16/ 17  999.7F   4/ 7   2/12
CAPE LOOKOUT NC  0700   63     310/  9/ 11 1000.5F
$$


USA.gov is the U.S. government's official web portal to all federal, state and local government web resources and services.